Regional Weather Roundup
Issued by NWS

Home | Current Version | Previous Version | Graphics & Text | Print | Product List | Glossary On
Versions: 1 2 3 4 5 6 7 8 9 10 11 12 13 14 15 16 17 18 19 20 21 22 23 24 25 26 27 28 29 30 31 32 33 34 35 36 37 38 39 40 41 42 43 44 45 46 47 48 49 50
000
ASUS43 KLSX 200007
RWRMO

WEATHER SUMMARY FOR MISSOURI
NATIONAL WEATHER SERVICE SPRINGFIELD MO
700 PM CDT FRI SEP 19 2014

NOTE: "FAIR" INDICATES FEW OR NO CLOUDS BELOW 12,000 FEET WITH NO
       SIGNIFICANT WEATHER AND/OR OBSTRUCTIONS TO VISIBILITY.
       CURRENT SKY AND/OR WEATHER CONDITIONS ARE NOT AVAILABLE FOR
       CHILLICOTHE AND FARMINGTON.

MOZ001>031-035>038-043-044-053-054-200100-
...NORTHERN AND WESTERN MISSOURI...

CITY           SKY/WX    TMP DP  RH WIND       PRES   REMARKS
KANSAS CTY INT PTCLDY    75  69  81 S9        29.93F
6HR MIN TEMP:  69; 6HR MAX TEMP:  78;

KANSAS C DTWN  CLEAR     79  67  66 S7        29.92F
6HR MIN TEMP:  70; 6HR MAX TEMP:  81;

LEE`S SUMMIT   CLEAR     76  68  76 S7        29.95F
6HR MIN TEMP:  70; 6HR MAX TEMP:  79;

ST JOSEPH      CLEAR     76  69  79 S9        29.90F
6HR MIN TEMP:  70; 6HR MAX TEMP:  78;

CHILLICOTHE      N/A     75  66  73 S6        29.95F
6HR MIN TEMP:  73; 6HR MAX TEMP:  78;

KIRKSVILLE     CLEAR     70  62  76 S9        29.97F
6HR MIN TEMP:  70; 6HR MAX TEMP:  77;


$$
MOZ066>068-077>081-088>096-101>105-200100-
...SOUTHWEST MISSOURI...

CITY           SKY/WX    TMP DP  RH WIND       PRES   REMARKS
SPRINGFIELD    CLEAR     74  64  71 S7        30.00F
6HR MIN TEMP:  74; 6HR MAX TEMP:  79;

JOPLIN         CLEAR     77  68  73 SW6       29.98S
6HR MIN TEMP:  76; 6HR MAX TEMP:  82;


$$
MOZ032>034-039>042-045>050-055>058-069>072-200100-
...CENTRAL MISSOURI...

CITY           SKY/WX    TMP DP  RH WIND       PRES   REMARKS
COLUMBIA       CLEAR     71  63  75 S6        29.99F
6HR MIN TEMP:  71; 6HR MAX TEMP:  78;

JEFFERSON CITY CLEAR     75  62  64 SE3       29.98F
6HR MIN TEMP:  75; 6HR MAX TEMP:  80;

ROLLA          HAZE      71  61  70 SE3       30.00S VSB 1/2
6HR MIN TEMP:  71; 6HR MAX TEMP:  77;

SEDALIA        CLEAR     74  65  73 S5        29.98F
6HR MIN TEMP:  74; 6HR MAX TEMP:  79;

WHITEMAN AFB   CLEAR     73  66  79 S6        29.96F
OSAGE BEACH    CLEAR     75  63  64 S3        30.00S

$$
MOZ051-052-059>065-200100-
...EAST CENTRAL MISSOURI...

CITY           SKY/WX    TMP DP  RH WIND       PRES   REMARKS
ST LOUIS INTL  PTCLDY    77  57  50 S5        30.01S
6HR MIN TEMP:  75; 6HR MAX TEMP:  80;

SPIRIT OF STL  CLEAR     69  62  78 CALM      29.99F
6HR MIN TEMP:  69; 6HR MAX TEMP:  78;

ST CHARLES     PTCLDY    72  58  61 S5        29.99F
6HR MIN TEMP:  72; 6HR MAX TEMP:  78;


$$
MOZ072>076-082>087-097>100-106>115-200100-
...SOUTH CENTRAL AND SOUTHEAST MISSOURI...

CITY           SKY/WX    TMP DP  RH WIND       PRES   REMARKS
CAPE GIRARDEAU CLEAR     72  62  71 NE3       30.01F
6HR MIN TEMP:  72; 6HR MAX TEMP:  81;

FARMINGTON     CLEAR     72  61  68 CALM      30.04F
6HR MIN TEMP:  72; 6HR MAX TEMP:  79;

POPLAR BLUFF   PTCLDY    74  62  66 CALM      29.99F
6HR MIN TEMP:  74; 6HR MAX TEMP:  82;

WEST PLAINS    CLEAR     75  63  66 CALM      30.03F
6HR MIN TEMP:  74; 6HR MAX TEMP:  79;


$$



USA.gov is the U.S. government's official web portal to all federal, state and local government web resources and services.